Weather History for Charlevoix, MI

Change the Weather History Date:

Wednesday, May 29, 2013

  Actual Average Record
Temperature  
Mean Temperature 58 °F -  
Max Temperature 68 °F 70 °F 89 °F (2006)
Min Temperature 48 °F 50 °F 33 °F (2004)
Degree Days  
Heating Degree Days 7    
Growing Degree Days 8 (Base 50)    
Moisture  
Dew Point 56 °F    
Average Humidity 94    
Maximum Humidity 100    
Minimum Humidity 79    
Precipitation  
Precipitation 0.00 in - - ()
Sea Level Pressure  
Sea Level Pressure 29.89 in    
Wind  
Wind Speed 5 mph (SW)    
Max Wind Speed 12 mph    
Max Gust Speed 17 mph    
Visibility 6 miles    
Events Fog    
Averages and records for this station are not official NWS values.
T = Trace of Precipitation, MM = Missing Value Source: NWS Daily Summary

Daily Weather History Graph

Daily Weather History Graph

Search for Another Location

Airport:

Trip Planner

Search our weather history database for the weather conditions in past years. The results will help you decide how hot, cold, wet, or windy it might be!

Date:

Astronomy

May. 29, 2013 Rise Set
Actual Time 5:58 AM EDT 9:19 PM EDT
Civil Twilight 5:21 AM EDT 9:55 PM EDT
Nautical Twilight 4:34 AM EDT 10:43 PM EDT
Astronomical Twilight 3:34 AM EDT 11:43 PM EDT
Moon 12:34 AM EDT (5/29) 11:04 AM EDT (5/29)
Length of Visible Light 16h 33m
Length of Day
15h 21m
Waning Gibbous, 73% of the Moon is Illuminated
May 29
Waning Gibbous
May 31
Last Quarter
Jun 8
New
Jun 16
First Quarter
Jun 23
Full

Hourly Weather History & Observations

Time (EDT) Temp. Dew Point Humidity Pressure Visibility Wind Dir Wind Speed Gust Speed Precip Events Conditions
12:14 AM 58.5 °F 58.5 °F 100% 29.77 in 1.8 mi Calm Calm - N/A   Overcast
12:34 AM 58.3 °F 58.3 °F 100% 29.77 in 1.5 mi Calm Calm - N/A   Overcast
12:55 AM 58.5 °F 58.5 °F 100% 29.77 in 1.0 mi Calm Calm - N/A   Overcast
1:14 AM 58.5 °F 58.5 °F 100% 29.78 in 1.5 mi Calm Calm - N/A   Overcast
1:34 AM 59.0 °F 59.0 °F 100% 29.79 in 1.8 mi Calm Calm - N/A   Overcast
1:55 AM 59.0 °F 59.0 °F 100% 29.77 in 0.8 mi WNW 3.5 mph - N/A   Overcast
2:14 AM 57.4 °F 57.4 °F 100% 29.78 in 0.5 mi WNW 5.8 mph - N/A Fog Fog
2:34 AM 54.9 °F 54.9 °F 100% 29.78 in 0.5 mi West 5.8 mph - N/A Fog Fog
2:55 AM 55.0 °F 55.0 °F 100% 29.79 in 0.5 mi West 6.9 mph - N/A Fog Fog
3:14 AM 54.7 °F 54.7 °F 100% 29.79 in 0.5 mi WSW 5.8 mph - N/A Fog Fog
3:34 AM 54.5 °F 54.5 °F 100% 29.79 in 0.8 mi West 8.1 mph - N/A   Overcast
3:55 AM 53.1 °F 53.1 °F 100% 29.79 in 0.5 mi West 10.4 mph - N/A Fog Fog
4:14 AM 51.3 °F 51.3 °F 100% 29.81 in 0.5 mi West 11.5 mph - N/A Fog Fog
4:34 AM 49.5 °F 49.5 °F 100% 29.82 in 1.2 mi West 9.2 mph - N/A   Overcast
4:55 AM 48.6 °F 48.6 °F 100% 29.82 in 0.2 mi West 10.4 mph - N/A Fog Fog
5:14 AM 48.4 °F 48.4 °F 100% 29.82 in 0.5 mi West 6.9 mph - N/A Fog Fog
5:35 AM 48.6 °F 48.6 °F 100% 29.83 in 0.5 mi WSW 4.6 mph - N/A Fog Fog
5:54 AM 49.1 °F 49.1 °F 100% 29.83 in 1.2 mi WSW 4.6 mph - N/A   Overcast
6:15 AM 49.1 °F 49.1 °F 100% 29.84 in 0.8 mi SW 5.8 mph - N/A   Overcast
6:34 AM 49.1 °F 49.1 °F 100% 29.84 in 0.8 mi Calm Calm - N/A   Overcast
6:54 AM 49.3 °F 49.3 °F 100% 29.85 in 1.0 mi West 5.8 mph - N/A   Overcast
7:15 AM 49.6 °F 49.6 °F 100% 29.87 in 0.8 mi SW 5.8 mph - N/A   Overcast
7:34 AM 50.0 °F 50.0 °F 100% 29.88 in 0.8 mi SW 4.6 mph - N/A   Overcast
7:55 AM 50.2 °F 50.2 °F 100% 29.88 in 0.5 mi WSW 5.8 mph - N/A Fog Fog
8:14 AM 50.5 °F 50.5 °F 100% 29.88 in 1.0 mi SW 6.9 mph - N/A   Overcast
8:34 AM 51.1 °F 51.1 °F 100% 29.88 in 1.2 mi SW 5.8 mph - N/A   Overcast
8:55 AM 51.8 °F 51.8 °F 100% 29.88 in 1.2 mi SW 3.5 mph - N/A   Overcast
9:14 AM 52.5 °F 52.5 °F 100% 29.89 in 1.2 mi SW 6.9 mph - N/A   Overcast
9:35 AM 53.6 °F 53.6 °F 100% 29.90 in 1.5 mi WSW 6.9 mph - N/A   Overcast
9:54 AM 54.0 °F 54.0 °F 100% 29.92 in 3.0 mi SW 6.9 mph - N/A   Overcast
10:14 AM 54.0 °F 54.0 °F 100% 29.93 in 2.0 mi SW 9.2 mph - N/A   Overcast
10:35 AM 54.5 °F 54.5 °F 100% 29.92 in 2.0 mi SW 10.4 mph - N/A   Overcast
10:54 AM 55.2 °F 55.2 °F 100% 29.92 in 3.0 mi SW 8.1 mph - N/A   Overcast
11:15 AM 55.9 °F 55.9 °F 100% 29.92 in 7.0 mi WSW 8.1 mph - N/A   Overcast
11:34 AM 56.5 °F 56.5 °F 100% 29.92 in 7.0 mi SW 6.9 mph - N/A   Overcast
11:54 AM 57.9 °F 57.7 °F 99% 29.92 in 10.0 mi SW 6.9 mph - N/A   Overcast
12:15 PM 59.7 °F 58.5 °F 96% 29.92 in 10.0 mi WSW 6.9 mph - N/A   Overcast
12:34 PM 60.6 °F 58.6 °F 93% 29.93 in 10.0 mi West 9.2 mph - N/A   Overcast
12:54 PM 61.5 °F 58.6 °F 90% 29.93 in 10.0 mi West 8.1 mph - N/A   Overcast
1:15 PM 61.7 °F 58.3 °F 89% 29.94 in 10.0 mi WSW 10.4 mph - N/A   Overcast
1:35 PM 63.7 °F 59.5 °F 86% 29.94 in 10.0 mi SSW 8.1 mph - N/A   Overcast
1:54 PM 63.5 °F 59.0 °F 85% 29.95 in 10.0 mi SW 6.9 mph - N/A   Overcast
2:15 PM 63.1 °F 57.9 °F 83% 29.95 in 10.0 mi SW 8.1 mph - N/A   Overcast
2:34 PM 63.1 °F 57.6 °F 82% 29.95 in 10.0 mi WSW 11.5 mph 17.3 mph N/A   Overcast
2:54 PM 64.8 °F 58.8 °F 81% 29.95 in 10.0 mi WSW 9.2 mph - N/A   Overcast
3:15 PM 63.7 °F 58.3 °F 83% 29.96 in 10.0 mi SSW 9.2 mph - N/A   Overcast
3:34 PM 63.3 °F 58.3 °F 84% 29.96 in 10.0 mi SW 9.2 mph 16.1 mph N/A   Overcast
3:54 PM 64.4 °F 58.8 °F 82% 29.96 in 10.0 mi SSW 9.2 mph - N/A   Overcast
4:14 PM 66.0 °F 59.9 °F 81% 29.95 in 10.0 mi SSW 11.5 mph - N/A   Overcast
4:34 PM 65.8 °F 59.7 °F 81% 29.95 in 10.0 mi SSW 8.1 mph - N/A   Overcast
4:55 PM 65.3 °F 59.9 °F 83% 29.96 in 10.0 mi South 6.9 mph - N/A   Overcast
5:14 PM 64.9 °F 60.1 °F 84% 29.96 in 10.0 mi South 3.5 mph - N/A   Overcast
5:34 PM 65.5 °F 60.3 °F 83% 29.96 in 10.0 mi South 4.6 mph - N/A   Overcast
5:55 PM 66.2 °F 61.0 °F 83% 29.95 in 10.0 mi SSW 3.5 mph - N/A   Overcast
6:14 PM 67.3 °F 61.7 °F 82% 29.95 in 10.0 mi SSW 4.6 mph - N/A   Overcast
6:34 PM 68.2 °F 62.4 °F 82% 29.95 in 10.0 mi SW 5.8 mph - N/A   Overcast
6:55 PM 68.2 °F 62.1 °F 81% 29.94 in 10.0 mi SW 5.8 mph - N/A   Mostly Cloudy
7:14 PM 68.9 °F 62.2 °F 79% 29.94 in 10.0 mi SSW 4.6 mph - N/A   Scattered Clouds
7:35 PM 68.9 °F 62.1 °F 79% 29.93 in 10.0 mi SW 3.5 mph - N/A   Clear
7:54 PM 63.5 °F 57.0 °F 79% 29.93 in 10.0 mi NNW 3.5 mph - N/A   Clear
8:14 PM 61.0 °F 56.8 °F 86% 29.94 in 10.0 mi NW 3.5 mph - N/A   Clear
8:35 PM 59.5 °F 57.0 °F 91% 29.93 in 10.0 mi Calm Calm - N/A   Clear
8:54 PM 60.4 °F 57.4 °F 90% 29.93 in 10.0 mi Calm Calm - N/A   Clear
9:15 PM 59.9 °F 57.2 °F 91% 29.92 in 10.0 mi Calm Calm - N/A   Clear
9:34 PM 59.0 °F 57.2 °F 94% 29.92 in 10.0 mi Calm Calm - N/A   Clear
9:54 PM 58.6 °F 57.6 °F 96% 29.93 in 10.0 mi Calm Calm - N/A   Clear
10:15 PM 57.9 °F 57.4 °F 98% 29.94 in 7.0 mi SE 3.5 mph - N/A   Clear
10:34 PM 58.3 °F 58.3 °F 100% 29.94 in 7.0 mi Calm Calm - N/A   Clear
10:54 PM 58.8 °F 58.8 °F 100% 29.94 in 5.0 mi SE 3.5 mph - N/A   Clear
11:15 PM 58.8 °F 58.5 °F 99% 29.94 in 7.0 mi ESE 3.5 mph - N/A   Clear
11:34 PM 58.5 °F 58.5 °F 100% 29.94 in 5.0 mi SE 4.6 mph - N/A   Clear
11:54 PM 59.0 °F 59.0 °F 100% 29.94 in 5.0 mi SE 4.6 mph - N/A   Clear